#timestamp,LO_Frequency,Hit 
1505340015.1,286047012.3,P
1505340016.0,286047012.3,P
1505340035.8,286047002.3,N
1505340055.6,286047004.8,N
1505340075.5,286047009.0,N
1505340095.3,286047003.6,N
1505340115.1,286047000.4,N
1505340135.9,286046997.1,N
1505340155.7,286046995.7,N
1505340175.5,286046990.1,N
1505340195.4,286046993.2,N
1505340215.2,286046989.9,N
1505340235.0,286046982.5,N
1505340235.9,286046982.5,N
1505340255.8,286046982.3,N
1505340275.6,286046983.9,N
1505340295.4,286046984.1,N
1505340315.3,286046988.0,N
1505340335.1,286046988.1,N
1505340336.0,286046988.1,N
1505340355.8,286046986.8,N
1505340375.6,286046980.6,N
1505340395.5,286046981.5,N
1505340415.3,286046983.4,N
1505340435.1,286046983.7,N
1505340455.9,286046986.1,N
1505340475.7,286046984.7,N
1505340495.5,286046986.1,N
1505340515.4,286046989.9,N
1505340535.2,286046989.4,N
1505340555.0,286046991.6,N
1505340555.9,286046991.6,N
1505340575.8,286046991.3,N
1505340595.6,286046985.9,N
1505340615.4,286046984.1,N
1505340635.3,286046986.2,N
1505340655.1,286046990.0,N
1505340656.0,286046990.0,N
1505340675.8,286046986.6,P
1505340695.7,286046996.3,P
1505340715.5,286046996.3,N
1505340735.3,286046995.5,N
1505340755.2,286046998.4,N
1505340775.9,286047000.7,N
1505340795.7,286046996.5,N
1505340815.6,286046998.3,N
1505340835.4,286047000.1,N
1505340855.2,286047000.1,N
1505340875.0,286046999.9,N
1505340876.0,286046999.9,N
1505340895.8,286046999.4,N
1505340915.6,286046995.9,N
1505340935.4,286046990.2,N
1505340955.3,286046992.7,N
1505340975.1,286046993.1,N
1505340995.8,286046994.7,N
1505341015.7,286046993.1,N
1505341035.5,286046990.5,N
1505341055.3,286046986.9,P
1505341075.2,286046988.3,N
1505341095.0,286046985.3,P
1505341095.9,286046985.3,P
1505341115.8,286047005.9,P
1505341135.6,286047012.1,N
1505341155.4,286047016.8,N
1505341175.2,286047017.6,N
1505341195.1,286047020.1,N
1505341196.0,286047020.1,N
1505341215.8,286047023.6,N
1505341235.6,286047026.5,N
1505341255.5,286047025.3,N
1505341275.3,286047022.4,N
1505341295.1,286047021.1,N
1505341315.9,286047026.0,N
1505341335.7,286047025.9,N
1505341355.5,286047026.2,N
1505341375.4,286047026.5,N
1505341395.2,286047027.9,N
1505341415.0,286047025.7,N
1505341415.9,286047025.7,N
1505341435.8,286047025.4,N
1505341455.6,286047028.1,N
1505341475.4,286047027.6,N
1505341495.2,286047029.8,N
1505341515.1,286047028.0,N
1505341516.0,286047028.0,N
1505341535.8,286047030.7,N
1505341555.6,286047032.3,N
1505341575.5,286047034.1,P
1505341595.3,286047011.7,N
1505341615.1,286047008.4,N
1505341635.9,286047009.2,N
1505341655.7,286047010.3,N
1505341675.5,286047012.3,N
1505341695.4,286047012.3,N
1505341715.2,286047012.4,N
1505341735.0,286047008.9,N
1505341735.9,286047008.9,N
1505341755.8,286047012.3,N
1505341775.6,286047010.7,N
1505341795.4,286047008.5,N
1505341815.3,286047007.9,N
1505341835.1,286047009.5,N
1505341836.0,286047009.5,N
1505341855.8,286047012.3,N
1505341875.7,286047009.7,N
1505341895.5,286047011.6,N
1505341915.3,286047010.3,N
1505341935.1,286047010.5,N
1505341955.9,286047009.7,N
1505341975.7,286047011.0,N
1505341995.5,286047012.4,N
1505342015.4,286047007.6,N
1505342035.2,286047003.6,N
1505342055.0,286047004.3,N
1505342055.9,286047004.3,N
1505342075.8,286047002.4,N
1505342095.6,286046996.9,N
1505342115.4,286046997.8,N
1505342135.3,286046993.8,N
1505342155.1,286046996.1,N
1505342156.0,286046996.1,N
1505342175.8,286046995.0,N
1505342195.7,286046993.8,N
1505342215.5,286046993.9,N
1505342235.3,286046992.0,N
1505342255.1,286046992.3,N
1505342275.9,286046996.4,N
1505342295.7,286046994.6,N
1505342315.5,286046992.4,N
1505342335.4,286046992.8,N
1505342355.2,286046995.2,N
1505342375.0,286046994.1,N
1505342375.9,286046994.1,N
1505342395.8,286046991.8,N
1505342415.6,286046991.7,N
1505342435.4,286046995.3,N
1505342455.3,286046997.5,N
1505342475.1,286046995.1,N
1505342476.0,286046995.1,N
1505342495.8,286046995.3,N
1505342515.7,286046995.3,N
1505342535.5,286046994.1,N
1505342555.3,286046991.0,N
1505342575.2,286046992.9,N
1505342595.9,286046992.1,N
1505342615.7,286046990.1,P
1505342635.6,286046996.0,N
1505342655.4,286046993.5,N
1505342675.2,286046991.7,P
1505342695.1,286047000.8,N
1505342696.0,286047000.8,N
1505342715.8,286046998.2,N
1505342735.6,286046998.0,N
1505342755.5,286046994.2,N
1505342775.3,286046993.7,N
1505342795.1,286046996.3,N
1505342815.9,286046994.8,N
1505342835.7,286046993.7,N
1505342855.5,286046991.5,N
1505342875.4,286046991.4,N
1505342895.2,286046986.0,P
1505342915.0,286046991.3,N
1505342915.9,286046991.3,N
1505342935.8,286046988.9,P
1505342955.6,286046998.5,N
1505342975.4,286046998.2,N
1505342995.3,286047003.5,N
1505343015.1,286047008.8,N
1505343016.0,286047008.8,N
1505343035.8,286047012.7,N
1505343055.7,286047016.3,N
1505343075.5,286047020.4,N
1505343095.3,286047020.9,N
1505343115.2,286047026.8,N
1505343135.9,286047025.8,N
1505343155.7,286047027.2,N
1505343175.6,286047025.7,N
1505343195.4,286047028.0,N
1505343215.2,286047029.0,N
1505343235.0,286047027.0,N
1505343235.9,286047027.0,N
1505343255.8,286047027.9,N
1505343275.6,286047029.7,N
1505343295.4,286047028.9,N
1505343315.3,286047030.3,N
1505343335.1,286047031.4,N
1505343355.8,286047033.1,N
1505343375.7,286047032.0,N
1505343395.5,286047034.8,N
1505343415.3,286047036.4,N
1505343435.2,286047036.3,N
1505343455.9,286047033.3,N
1505343475.7,286047032.2,N
1505343495.6,286047034.2,N
1505343515.4,286047032.5,P
1505343535.2,286047009.0,N
1505343555.1,286047006.5,N
1505343556.0,286047006.5,N
1505343575.8,286047009.6,N
1505343595.6,286047011.9,N
